Theta_e
307 306 303 304 304 304 305 305 305 305 305 305 306 306 306 305 305 305 305 306 305 306 305 306 306 305 306 306 306 306 306 307 306 305 305 303 303 306 310 311 313 316 317 316 316 316 315 315 315 315 315 316 315 315 315 314 314 314 315 315 315 315
307 305 303 304 304 305 305 305 305 306 305 305 305 307 307 306 305 305 305 305 305 305 306 306 306 305 305 305 305 305 305 304 304 304 303 303 306 311 312 312 314 317 317 316 316 316 316 315 315 315 315 315 315 314 314 314 314 314 314 314 314 314
306 304 303 304 304 305 305 305 305 306 306 305 305 307 307 306 306 305 305 305 305 306 306 306 306 305 305 305 304 304 303 303 303 302 302 305 309 312 312 312 315 317 317 317 316 316 316 316 315 315 315 315 314 314 313 313 313 314 314 314 314 314
307 305 304 304 304 305 305 305 305 306 306 306 306 308 308 306 306 306 305 305 306 306 306 306 305 305 305 304 303 303 302 302 301 301 303 307 311 312 311 312 315 317 317 317 316 316 316 316 315 315 315 314 314 314 313 313 313 313 313 313 314 314
307 305 303 303 303 304 305 305 305 306 306 306 307 308 308 307 306 305 305 306 306 306 305 305 305 304 303 303 303 302 301 300 300 301 304 307 309 311 311 312 315 317 317 317 316 316 316 316 315 315 315 314 314 314 313 313 313 313 313 313 313 314
307 306 305 305 303 303 304 304 304 305 306 306 307 307 307 307 306 306 306 306 306 306 305 305 304 303 302 302 302 301 300 299 300 301 304 306 307 309 311 312 315 317 318 317 317 316 316 316 315 315 314 314 314 314 313 313 313 313 313 313 313 314
308 307 307 306 303 302 303 303 304 304 305 305 306 307 307 307 306 306 306 306 305 305 305 304 303 302 302 302 301 300 300 300 300 301 304 306 307 309 310 312 315 316 317 318 317 316 316 316 315 315 314 314 314 314 314 313 312 312 313 313 313 314
308 307 307 305 302 302 303 303 303 304 304 304 305 305 306 306 306 305 305 305 305 304 304 304 303 303 302 301 301 300 300 300 300 301 302 305 306 309 310 312 314 315 317 317 317 317 316 316 315 315 314 314 313 313 313 313 312 312 312 312 313 313
308 307 307 305 302 302 303 302 302 303 303 304 304 304 305 305 305 305 305 305 304 304 304 304 303 302 302 301 301 300 300 300 300 301 301 303 305 308 310 311 313 315 315 316 317 317 316 316 316 315 314 314 313 313 313 312 312 312 312 312 312 313
307 307 308 306 302 302 303 302 302 302 303 303 304 304 304 304 305 304 304 305 305 304 304 303 302 302 301 301 301 301 301 300 300 301 301 302 304 306 308 310 313 314 314 315 316 316 316 316 315 315 314 313 313 312 312 312 312 311 311 312 312 312
308 308 309 308 304 302 303 303 302 302 302 302 303 304 303 304 304 304 304 304 304 304 304 303 302 302 302 301 302 302 301 301 301 300 301 301 302 304 306 308 311 313 314 314 314 315 315 315 315 315 314 313 313 312 312 312 312 311 311 311 311 312
311 309 309 310 308 303 302 303 303 302 302 302 302 303 303 303 304 304 304 304 303 304 303 303 303 302 302 302 302 302 302 302 301 301 301 301 301 303 304 306 309 312 313 314 314 314 314 315 315 315 314 314 313 312 312 312 312 311 311 311 311 311
312 310 309 311 308 302 301 302 303 303 302 302 302 302 302 303 303 303 303 303 303 303 303 303 303 303 303 302 302 302 302 302 301 301 301 301 301 301 302 304 307 309 312 314 314 314 314 314 314 314 314 313 313 313 312 312 311 311 311 311 311 311
312 311 312 310 304 301 302 303 302 302 302 302 302 302 302 302 302 302 302 302 302 302 303 303 303 303 303 303 302 302 302 302 301 301 300 300 301 301 301 302 304 306 310 313 314 314 313 313 314 314 313 313 313 313 312 312 312 311 311 311 311 311
314 312 311 307 301 301 303 303 302 302 302 302 302 302 301 301 301 301 301 301 301 301 302 302 303 303 303 302 302 302 302 302 301 301 300 300 300 301 301 301 301 303 307 311 312 313 313 313 313 313 313 313 313 313 313 312 312 312 312 311 311 311
314 312 306 302 302 303 303 303 302 303 302 302 302 302 301 301 301 300 300 300 300 301 301 301 302 302 302 302 302 302 302 301 301 300 300 300 300 300 301 301 300 301 305 308 310 312 313 313 313 313 313 313 313 313 313 312 312 312 312 312 312 312
313 312 306 302 303 304 303 302 303 302 302 302 301 301 301 301 300 300 300 300 300 300 301 301 301 301 301 301 301 301 301 301 301 300 300 299 299 299 300 300 300 300 302 305 308 310 311 312 312 313 313 313 313 312 312 312 312 312 312 311 311 311
307 308 306 304 304 304 303 303 303 302 302 302 301 301 301 301 300 300 300 300 300 300 301 301 301 301 301 301 301 301 301 301 300 300 300 299 299 299 299 299 300 300 300 301 304 307 309 310 311 311 312 312 312 312 312 312 312 312 311 311 311 311
304 304 305 305 305 304 303 303 302 302 301 301 301 301 301 300 299 299 299 300 300 300 301 301 301 301 300 300 300 300 301 300 300 300 300 299 298 298 298 299 299 299 299 299 301 304 306 308 309 310 310 311 311 311 311 311 311 311 310 310 310 310
304 304 304 305 305 304 304 303 303 302 301 301 301 300 300 299 299 299 299 299 300 300 300 301 301 300 300 300 300 300 300 300 300 300 299 299 298 298 298 298 298 299 299 299 299 300 302 305 306 308 308 309 309 310 310 310 310 309 309 308 308 308
303 304 304 304 303 304 304 303 303 301 300 300 300 300 299 299 299 300 300 300 300 300 300 300 300 300 300 300 300 300 300 300 300 300 299 299 298 298 298 297 297 297 297 297 298 298 299 301 303 305 306 307 307 308 308 308 308 307 306 306 306 306
300 301 301 301 302 303 303 303 302 301 299 299 299 298 298 299 300 300 301 300 301 300 300 299 299 300 300 300 300 300 300 299 299 299 299 298 298 297 297 296 296 296 296 296 296 296 297 298 300 302 303 304 305 306 306 306 306 306 304 304 304 304
298 299 299 301 302 302 302 302 301 299 299 298 297 297 299 300 300 300 300 300 300 300 299 299 299 299 300 300 300 299 299 299 299 299 298 298 297 297 296 295 295 295 295 295 295 295 295 296 297 298 300 301 303 303 304 304 305 305 304 303 303 303
296 297 298 300 301 301 301 301 300 298 298 297 297 298 300 300 300 300 300 300 300 300 299 299 299 299 299 299 299 299 298 298 298 298 298 297 297 296 295 294 294 295 295 295 295 295 295 295 295 295 296 298 299 300 301 302 302 303 303 302 301 301
293 294 296 298 299 300 300 300 299 298 297 296 298 300 300 299 299 300 300 300 300 299 299 299 299 299 299 299 299 298 298 298 298 297 297 296 296 295 294 294 294 294 295 295 295 295 295 294 294 294 294 295 296 297 297 298 299 299 300 300 300 300
291 292 293 295 297 298 299 299 299 297 296 297 299 299 299 299 299 299 299 300 300 299 299 299 299 299 299 299 299 298 298 297 297 297 296 296 295 294 293 293 293 294 294 294 294 295 294 294 294 294 294 294 294 294 294 295 295 295 296 297 297 297
290 290 291 292 294 296 297 298 298 297 296 298 299 299 299 299 298 298 299 299 299 298 298 298 299 299 299 299 298 298 297 297 296 296 295 295 295 293 293 292 292 293 293 293 293 294 294 294 294 294 294 294 294 294 294 294 294 294 294 294 295 295
290 289 290 291 292 294 295 296 297 296 297 298 298 298 298 298 298 298 298 298 298 298 297 297 298 298 298 298 298 297 297 297 296 295 294 294 293 293 292 292 292 292 292 292 293 293 292 293 293 294 294 294 293 294 294 294 294 294 293 293 294 294
289 289 289 289 290 292 293 294 295 296 296 297 297 297 297 297 297 297 297 297 297 297 297 297 297 297 297 297 297 297 296 296 295 294 293 293 293 292 292 292 291 292 292 292 292 292 292 292 292 292 293 293 293 294 294 294 295 294 293 293 293 293
290 290 289 289 290 290 291 292 293 294 295 295 296 296 296 296 297 297 296 296 296 296 296 296 296 296 296 296 296 296 295 295 295 294 294 294 293 293 292 291 291 292 292 292 292 292 292 291 291 291 291 292 292 292 292 294 295 294 293 293 293 293
290 290 289 289 290 290 290 291 291 292 293 294 294 295 295 295 296 296 295 295 295 295 295 296 296 296 295 295 295 295 295 295 295 294 294 294 295 295 295 294 292 292 292 292 292 292 292 292 291 291 291 291 291 291 292 293 294 294 294 293 293 293
289 290 290 290 290 290 290 290 290 291 291 292 293 294 294 295 295 295 294 294 294 294 294 295 295 295 294 294 294 294 294 294 294 294 294 294 294 295 295 295 295 294 294 293 293 293 294 294 293 292 291 291 291 292 292 293 294 294 294 294 293 293
288 289 290 290 290 289 289 289 289 290 290 291 292 292 293 294 294 293 293 293 293 294 294 294 294 294 293 293 293 293 292 292 292 293 293 293 293 293 294 294 295 295 294 294 294 294 294 294 293 292 291 291 292 292 293 293 293 294 293 293 293 293
287 288 289 289 288 288 287 287 288 289 290 290 291 291 292 293 293 293 293 293 293 293 293 293 293 293 292 292 292 292 292 291 291 291 292 293 293 293 293 293 294 294 294 294 294 294 293 293 292 292 292 291 292 292 293 293 293 293 293 293 293 292
286 287 287 287 286 286 287 287 286 287 288 289 289 290 291 292 292 292 293 293 293 293 293 293 292 292 292 292 292 291 291 291 291 290 291 291 292 293 293 293 293 293 293 293 293 293 293 293 293 292 292 291 292 292 293 293 293 293 293 292 292 292
285 286 285 284 283 284 286 285 283 283 285 286 288 289 290 291 291 292 292 293 293 293 292 292 292 292 292 292 292 291 291 291 291 290 290 290 291 291 292 292 293 293 293 292 293 293 293 293 293 292 291 291 291 292 292 292 292 292 292 292 292 291
283 282 281 281 281 282 283 282 281 281 282 284 286 288 289 290 290 291 292 292 293 293 292 292 292 292 292 292 292 292 291 291 291 290 290 290 290 290 291 291 291 292 292 292 292 292 293 292 292 291 291 291 291 291 292 291 291 291 292 291 291 291
280 278 278 278 279 279 280 279 278 279 281 282 284 286 288 289 290 290 291 292 292 292 292 292 292 292 292 292 292 292 292 291 291 290 290 290 290 290 290 290 290 291 291 291 291 291 291 291 291 291 291 291 291 291 291 291 291 291 291 291 291 290
Wind_Speed
9 8 12 16 19 22 23 23 24 24 25 27 27 27 28 28 28 28 28 27 27 27 26 25 25 24 24 23 22 21 21 21 21 21 21 20 18 16 18 18 16 15 16 16 18 17 14 16 18 18 20 24 25 27 29 28 28 30 32 33 34 36
9 10 13 17 20 22 23 23 23 23 24 25 25 24 25 26 27 27 27 27 26 25 25 24 24 23 23 23 22 22 22 22 21 20 20 17 14 14 17 17 15 14 14 14 16 16 15 17 18 18 19 21 23 25 27 26 28 30 33 33 32 33
8 10 15 18 20 21 23 24 24 23 24 25 25 24 25 26 27 27 27 27 26 25 24 24 23 23 22 21 21 21 21 21 20 20 18 15 13 14 16 15 13 13 13 13 15 17 17 18 19 20 21 21 21 23 24 25 27 28 29 31 31 31
7 9 14 17 18 20 22 23 24 23 24 25 26 25 26 28 28 28 28 27 26 26 25 24 23 22 21 21 21 20 20 19 18 18 16 15 13 13 14 13 11 13 13 13 15 18 18 19 19 21 22 22 24 25 26 26 27 26 24 27 30 32
7 8 11 14 17 19 21 23 24 24 25 26 27 27 27 28 29 28 28 27 26 26 25 23 23 22 21 21 21 21 19 17 16 16 16 16 14 13 13 11 10 13 14 13 16 19 19 20 21 21 23 24 26 27 27 28 30 29 26 26 28 30
7 8 9 10 13 17 20 21 23 24 25 27 27 28 28 29 28 28 27 26 25 25 24 24 23 23 22 22 21 20 18 17 16 15 15 15 14 13 12 10 9 13 15 16 18 19 20 20 21 22 23 25 26 27 27 28 30 31 30 29 29 29
7 7 7 8 10 15 18 20 22 23 25 26 27 27 27 28 28 27 27 26 25 25 24 24 24 24 24 23 22 20 18 16 16 15 15 15 13 12 11 9 9 12 15 18 19 21 21 21 22 23 24 25 26 27 28 28 30 31 30 31 32 32
6 7 7 7 10 15 17 19 20 22 23 25 27 27 27 27 27 27 27 26 25 25 25 25 25 25 24 24 22 20 18 17 16 15 15 15 12 11 11 10 10 11 14 18 20 22 23 23 23 24 25 26 27 27 29 29 30 31 31 30 31 32
4 5 6 7 10 14 17 19 20 21 23 24 26 27 27 28 27 27 27 27 26 26 27 26 26 25 25 24 23 21 19 18 17 16 15 15 13 11 11 12 11 11 13 17 20 22 24 24 24 25 25 26 27 28 29 29 29 29 30 30 29 30
3 3 3 5 8 12 15 17 20 22 23 24 26 27 28 28 28 28 28 28 27 27 27 27 26 26 25 24 23 21 20 19 18 17 16 15 14 13 13 12 12 12 12 14 18 21 23 24 24 24 25 26 27 27 28 28 28 28 28 29 28 28
4 4 4 6 8 10 12 15 18 20 22 23 25 27 28 28 28 28 28 28 28 28 28 27 26 25 24 24 23 22 21 19 19 18 17 16 15 14 13 12 13 13 13 13 15 18 21 23 24 24 25 26 26 26 27 27 28 27 27 27 27 27
7 6 6 6 7 9 12 15 18 20 22 24 26 27 28 28 29 29 28 29 29 29 28 27 26 25 24 24 24 23 22 20 19 19 18 18 17 16 14 13 14 15 14 14 14 16 19 21 23 24 24 25 26 26 26 27 28 28 27 27 26 26
7 6 7 7 8 10 14 17 19 22 24 25 27 29 30 30 30 30 30 30 30 28 27 27 26 25 25 25 24 24 23 21 20 20 20 19 18 17 16 16 15 15 15 15 15 16 18 20 21 22 23 24 25 26 27 27 27 28 28 28 28 28
7 7 8 8 9 13 16 18 20 22 24 26 29 31 31 31 31 31 31 30 28 28 28 28 27 27 26 26 26 25 24 23 22 21 21 21 20 19 18 18 17 16 15 16 16 16 17 19 20 21 22 23 24 25 27 27 28 28 29 29 29 29
7 8 8 8 11 16 19 21 22 24 27 29 30 31 31 32 32 32 31 29 28 28 29 29 29 28 28 28 27 26 25 24 25 24 23 22 21 21 20 19 18 17 16 17 17 17 18 19 19 20 21 23 24 25 26 26 27 28 29 30 30 30
6 8 10 13 16 18 20 21 23 26 27 29 29 30 31 32 31 30 29 28 28 29 29 29 30 30 30 29 28 27 27 27 26 26 24 23 22 23 22 21 20 19 18 18 17 17 17 18 19 20 21 22 23 25 25 26 26 27 28 29 30 30
6 6 10 15 18 18 18 20 22 23 24 25 27 28 29 30 29 28 28 28 28 28 29 29 30 31 30 30 29 28 28 28 27 27 25 24 24 24 24 22 22 21 20 19 19 18 18 18 18 19 20 22 23 24 25 25 25 26 26 27 28 29
8 8 10 14 17 17 18 18 19 21 21 22 25 27 29 29 28 28 28 27 27 28 29 30 31 30 30 30 30 29 29 28 28 28 26 25 24 24 24 23 23 23 22 21 20 20 20 18 17 18 20 21 23 24 25 25 24 24 24 24 25 25
12 11 10 11 13 16 16 16 16 18 19 21 23 26 27 27 27 27 28 27 28 29 30 32 32 31 30 30 30 30 30 30 29 28 27 26 25 25 25 25 24 24 24 23 22 22 21 20 18 17 18 20 22 24 24 24 23 22 22 22 22 22
11 12 12 11 12 13 13 13 15 17 18 20 22 24 24 24 26 27 28 29 30 31 32 34 33 31 30 30 31 32 32 31 30 30 29 28 27 27 26 25 24 23 24 25 25 24 22 22 20 18 17 18 20 23 23 23 22 20 20 19 19 19
11 10 11 11 11 10 9 12 16 17 18 20 22 22 22 24 27 29 30 31 31 31 32 32 32 31 30 31 32 33 32 32 31 30 29 28 28 27 25 25 24 23 23 24 25 25 24 23 22 21 19 19 19 21 21 22 22 20 19 19 18 17
15 11 11 13 14 11 9 12 16 18 19 19 20 21 22 25 29 30 31 31 30 29 29 29 29 31 31 32 32 32 32 31 30 29 29 28 27 25 24 24 23 23 23 22 23 24 25 25 25 24 22 21 20 21 20 21 22 22 21 20 20 19
19 15 14 16 17 14 13 14 15 17 18 17 17 20 24 27 29 29 29 29 28 27 26 26 28 30 31 31 31 30 29 29 29 30 29 28 26 25 24 23 23 22 22 22 22 22 23 25 26 26 25 23 22 22 22 22 22 23 23 22 22 21
20 19 19 19 18 16 16 15 16 16 16 15 17 22 24 24 24 24 25 26 26 26 25 25 27 29 30 30 29 28 27 27 28 29 29 28 27 25 24 23 22 21 20 20 21 22 23 24 24 25 25 26 25 24 24 23 23 22 23 23 22 22
17 20 22 21 20 19 18 16 17 16 14 15 20 23 22 21 21 21 22 24 26 26 25 25 26 28 29 29 30 29 28 28 29 29 29 29 27 25 24 23 22 22 20 20 21 22 23 23 24 24 24 25 26 26 25 25 25 24 24 24 24 24
16 21 24 24 22 22 21 17 17 15 14 18 21 20 19 21 21 21 23 25 25 24 24 24 26 28 30 30 31 30 29 30 30 29 29 30 28 26 23 23 23 22 21 21 21 22 23 24 24 24 24 24 25 25 24 24 24 24 24 25 25 25
18 21 23 25 24 23 22 20 18 16 17 21 20 17 18 19 19 21 24 24 24 24 22 22 25 28 30 31 32 32 32 32 32 31 30 30 29 26 24 22 23 23 22 21 21 22 24 25 25 25 25 24 24 24 23 23 23 22 22 22 23 23
19 18 19 22 24 22 22 21 18 18 20 21 18 16 17 17 18 21 23 24 24 24 21 21 24 27 29 31 33 34 35 35 35 33 32 31 29 27 25 24 23 22 21 21 22 22 23 24 25 26 26 25 25 25 25 24 24 22 21 21 21 21
13 13 14 17 21 21 21 21 20 19 19 18 16 15 15 17 21 23 23 24 24 23 22 23 24 26 28 30 31 31 32 33 34 33 32 31 29 26 24 24 24 23 22 22 22 22 23 24 24 25 26 27 28 28 27 27 26 23 21 21 21 19
11 12 12 14 19 22 22 22 22 21 18 17 17 15 15 18 22 23 23 23 23 22 23 25 26 27 28 29 30 31 31 32 33 33 33 35 35 32 29 27 27 27 27 26 24 22 21 22 25 29 31 32 32 31 30 30 29 27 25 23 21 19
12 14 13 15 19 22 22 23 23 21 18 17 17 16 16 18 20 21 21 21 21 22 23 24 25 27 27 28 29 30 31 33 35 35 35 36 38 37 36 35 33 32 31 29 28 27 24 24 29 33 33 32 32 32 33 32 31 30 29 26 23 22
15 16 16 17 20 21 21 22 21 19 17 15 15 16 17 18 18 19 19 18 19 21 22 23 24 25 26 27 27 26 24 26 29 30 31 32 33 33 34 33 33 33 32 31 30 30 28 28 30 30 30 30 31 32 32 32 31 30 29 26 25 25
16 16 17 19 21 21 21 22 19 16 14 12 13 15 18 18 17 16 16 17 18 20 21 22 23 24 25 25 25 24 21 18 18 20 22 25 26 26 26 26 27 29 30 29 29 29 27 24 24 25 28 30 31 31 31 30 30 28 27 27 27 26
15 16 17 19 21 22 22 21 19 17 15 12 12 13 16 17 16 15 14 15 16 18 20 22 22 22 23 22 22 23 22 19 16 13 14 17 20 21 21 21 21 23 25 26 27 27 26 23 21 23 27 30 30 31 31 30 29 28 27 28 28 26
17 17 17 18 21 22 22 20 22 23 22 18 15 13 14 16 15 14 13 14 16 17 19 20 20 21 23 23 23 23 23 21 19 18 17 16 16 17 17 17 17 20 23 24 25 25 25 23 20 22 26 29 30 31 31 29 28 28 28 29 30 26
16 15 16 18 20 21 20 21 26 29 28 24 19 14 12 13 13 13 12 12 15 17 19 19 20 21 22 23 24 24 23 23 21 21 24 24 21 18 17 17 18 20 22 23 24 24 23 22 21 23 26 28 30 31 30 28 27 27 28 30 30 26
14 13 15 17 17 18 18 21 27 32 30 26 22 16 12 11 10 11 11 10 12 16 18 19 20 21 21 22 23 24 23 24 23 23 25 27 25 22 21 22 22 23 23 24 23 23 22 22 22 24 26 28 30 30 30 28 27 28 29 31 30 27
12 13 14 15 15 17 16 17 26 32 30 26 24 19 13 10 9 9 10 9 10 13 16 18 20 22 22 23 23 23 24 24 24 23 22 22 22 21 21 23 23 22 22 22 22 22 21 22 22 24 26 28 30 31 32 30 29 28 28 29 29 27
Wind_Direction
193 190 186 182 176 175 176 178 176 173 173 173 173 176 181 184 187 189 191 193 194 197 200 203 206 210 213 216 218 220 223 229 234 238 243 248 251 252 258 267 275 273 269 270 272 264 249 234 222 218 222 221 216 212 210 209 204 198 197 197 197 195
186 181 176 174 171 169 170 171 171 170 172 174 174 177 181 184 187 189 191 193 195 198 200 203 206 210 214 218 221 223 227 231 235 238 242 244 245 248 257 267 269 262 262 265 261 247 231 226 220 212 211 211 209 207 204 203 202 200 198 197 196 194
175 170 168 168 165 164 165 167 169 169 171 174 176 177 179 183 187 190 191 192 194 196 198 201 205 209 214 218 223 226 228 230 233 236 239 237 237 245 257 265 261 252 254 256 248 234 223 220 214 205 201 200 202 206 204 201 198 199 199 197 194 194
164 158 157 158 158 159 162 166 169 170 172 175 177 178 180 184 187 190 191 192 193 196 199 202 205 209 213 217 220 222 224 227 230 233 231 228 230 244 259 263 250 242 246 246 237 226 218 214 210 203 199 199 200 202 203 200 197 198 200 197 195 194
157 152 152 154 156 159 162 167 170 172 175 177 178 181 184 187 189 190 191 191 194 197 200 202 205 208 211 213 215 218 220 222 225 227 226 224 227 240 256 258 240 234 236 235 230 223 216 213 210 205 200 198 197 197 199 200 197 196 197 197 195 193
148 150 152 155 160 161 164 168 172 176 178 179 180 183 185 188 189 190 190 192 194 197 199 202 205 206 207 210 213 215 215 216 219 221 221 223 224 232 246 250 234 227 226 224 222 218 216 215 212 208 204 202 201 200 200 200 197 195 194 194 193 189
150 158 160 162 165 166 168 171 174 177 179 181 183 184 185 187 189 190 191 193 193 194 197 200 202 204 205 207 211 212 210 210 214 217 218 221 222 225 237 242 232 226 222 219 218 216 215 216 214 212 208 206 205 204 203 203 200 196 194 192 190 188
158 165 166 168 169 170 171 173 176 178 180 184 186 186 184 186 189 191 191 192 192 192 195 197 200 203 205 207 210 211 208 208 212 215 217 220 220 220 229 234 231 228 224 220 219 217 216 215 214 213 210 205 204 203 203 202 200 198 196 193 190 189
144 165 172 175 173 173 173 175 178 179 179 184 188 188 186 187 189 191 191 192 192 192 194 197 201 205 207 209 210 211 210 209 211 215 219 222 219 216 224 229 228 228 225 222 220 220 219 217 215 213 210 205 202 201 200 197 196 196 196 195 193 192
109 126 148 159 166 173 176 178 181 183 182 184 187 188 188 188 189 190 191 192 191 193 196 200 205 208 209 209 210 210 211 211 212 214 217 220 219 218 220 224 226 226 221 219 221 222 222 220 217 214 210 206 203 199 197 195 193 194 195 196 198 197
177 165 161 158 163 173 178 181 184 185 186 186 186 188 189 189 190 191 192 192 193 195 199 201 204 207 208 206 206 209 211 212 213 213 215 219 221 221 219 218 225 228 221 216 218 221 223 221 219 215 210 206 202 198 195 193 193 194 195 195 197 199
193 190 185 177 175 178 181 185 187 188 189 188 188 190 191 191 192 193 193 195 197 197 198 200 203 204 204 204 204 208 210 212 213 214 215 217 219 221 219 216 220 226 225 219 214 215 219 220 219 216 211 207 204 200 195 193 193 194 195 195 196 198
182 186 192 197 199 193 190 190 191 193 194 192 191 194 194 194 195 197 198 200 199 197 196 198 200 201 202 203 205 207 209 211 213 214 215 216 217 218 219 218 218 220 224 224 220 216 217 219 219 216 211 207 205 202 198 195 194 194 195 197 199 200
180 186 196 207 207 203 201 197 194 195 196 195 196 197 197 197 199 201 203 204 200 197 197 197 198 200 202 203 205 207 209 210 212 212 214 214 215 216 219 221 221 219 220 224 226 222 218 218 219 217 212 208 207 205 203 199 196 196 197 200 202 204
188 192 202 210 209 213 215 207 200 200 201 199 199 198 197 198 202 204 206 205 203 201 200 199 199 201 203 204 206 207 208 210 211 213 215 215 215 216 218 221 220 218 217 222 226 225 221 219 219 219 216 212 209 208 206 203 201 200 200 202 204 206
207 202 206 211 215 223 227 220 213 210 207 203 200 197 197 199 202 205 207 207 206 206 203 201 201 203 205 205 205 206 207 210 213 216 217 216 213 214 217 219 218 215 215 218 223 226 226 223 220 219 218 215 212 210 208 207 207 206 206 206 207 208
238 219 211 215 220 225 228 226 223 218 211 205 199 195 197 199 201 204 207 207 208 207 206 204 204 205 205 204 203 204 206 209 213 216 217 215 214 215 217 219 218 215 213 214 218 223 227 226 221 219 218 216 213 211 209 209 209 208 209 209 209 211
252 243 225 220 221 222 224 227 227 220 211 205 199 196 197 199 201 204 206 206 207 208 208 208 206 204 202 200 199 201 205 208 211 214 215 214 214 215 216 217 217 215 212 211 213 218 223 226 223 220 218 215 212 210 208 209 209 209 209 210 210 212
263 267 258 238 226 223 225 228 228 220 210 203 199 197 196 197 200 204 205 206 208 209 210 211 209 205 200 196 196 200 205 207 209 211 212 210 209 211 213 214 215 214 212 210 210 213 217 220 221 220 217 214 211 208 207 207 208 208 208 209 211 212
278 284 276 255 238 231 227 228 226 217 208 202 199 196 194 196 200 204 205 207 210 211 212 212 209 205 200 197 198 202 205 206 207 208 209 209 209 210 211 212 212 213 213 211 210 211 213 215 216 215 214 213 211 208 207 205 204 203 203 203 205 208
309 297 281 266 256 248 233 227 223 213 207 204 200 196 196 200 204 207 209 213 215 216 215 211 208 206 203 202 205 206 206 206 206 206 206 208 209 209 209 208 208 209 212 213 211 210 210 211 212 212 210 210 210 208 205 201 197 193 192 191 190 192
327 304 285 280 277 274 258 236 221 211 210 208 200 198 202 207 212 215 217 220 221 221 219 213 208 207 207 209 211 211 208 205 203 201 201 202 204 205 203 204 205 207 210 212 212 211 210 209 209 209 209 209 209 208 204 199 194 188 183 184 183 181
327 312 299 292 287 282 269 247 225 216 217 211 202 205 212 216 219 219 220 222 223 222 220 216 212 210 212 215 215 212 208 205 201 199 198 196 197 197 196 197 200 203 207 210 210 211 212 212 210 209 207 208 210 210 207 202 198 193 187 184 185 186
326 319 309 303 297 288 274 254 235 228 222 211 211 218 221 221 220 218 219 223 224 222 219 215 214 213 214 216 214 209 205 203 201 199 195 192 191 191 189 190 192 196 201 207 211 213 213 214 214 211 207 206 209 212 211 209 206 203 198 192 190 193
325 318 310 305 299 289 279 260 244 240 228 219 226 228 222 219 217 214 218 221 222 222 220 215 214 214 214 213 211 207 202 198 196 195 192 189 186 183 183 184 186 189 193 199 207 213 215 215 216 215 210 208 209 211 213 214 212 211 209 205 202 202
323 319 314 311 304 294 285 269 254 250 244 240 241 234 222 217 213 211 217 222 224 226 224 219 216 214 213 212 208 203 197 192 190 189 187 186 182 177 177 180 182 184 188 193 200 207 212 214 216 217 215 212 212 213 213 214 214 213 213 211 210 210
321 316 312 312 311 305 295 280 262 253 255 257 256 247 234 223 214 213 219 224 228 231 228 222 218 214 212 209 204 198 192 187 184 182 181 182 179 175 174 178 182 184 186 189 195 201 206 210 213 216 216 214 213 213 211 211 211 209 208 208 209 209
322 319 312 313 315 312 304 292 272 257 258 263 264 259 249 236 224 222 225 227 231 232 227 219 214 211 209 207 204 200 194 188 183 180 178 178 178 176 176 177 181 183 184 189 194 198 201 205 208 211 213 212 211 209 208 209 211 209 207 206 206 205
324 322 316 315 318 316 310 302 291 278 272 270 264 256 247 236 228 226 226 227 229 227 220 213 209 205 204 203 201 198 195 190 186 180 176 176 176 175 176 178 180 182 184 188 192 194 197 200 204 207 209 207 206 205 205 207 209 208 208 206 204 203
322 320 316 317 323 323 317 310 305 298 290 280 268 256 241 231 227 225 225 226 223 218 213 208 203 199 197 197 197 195 192 190 188 184 183 184 183 179 178 180 183 186 188 187 186 186 189 197 203 206 207 205 203 201 202 203 204 204 202 200 198 197
324 320 317 322 330 332 326 318 312 306 298 286 273 258 242 232 228 227 228 225 218 211 206 202 199 196 194 192 194 195 195 194 193 191 192 194 194 191 189 187 189 192 190 186 184 183 184 194 206 209 206 203 200 197 197 198 199 197 195 194 193 192
330 323 322 329 336 337 330 322 317 312 303 289 273 257 244 235 228 226 224 219 210 204 199 195 195 194 192 190 189 190 193 197 198 198 198 197 198 199 198 197 197 198 193 188 189 192 195 202 209 207 202 199 198 196 195 196 196 194 193 193 192 189
333 328 327 333 339 339 333 326 324 325 317 299 278 261 248 237 228 221 218 212 206 200 195 192 192 191 190 189 186 181 178 180 189 200 204 202 199 199 201 202 202 201 197 192 193 196 202 209 211 204 199 197 196 195 196 196 195 195 196 194 189 184
333 327 327 336 343 342 336 334 339 347 345 328 303 278 258 243 232 223 216 211 204 200 197 193 190 187 184 180 179 176 171 164 161 169 188 201 202 200 199 200 200 198 196 195 195 193 196 203 208 204 199 196 194 194 195 195 195 196 197 193 189 186
328 329 336 348 354 350 345 347 357 1 358 350 332 302 272 252 239 229 222 213 203 198 196 192 188 184 181 178 175 173 171 167 160 152 153 167 183 189 190 192 194 191 189 190 193 193 192 194 198 197 195 193 192 193 193 193 195 197 195 191 189 190
331 344 352 357 359 357 356 358 359 360 1 0 350 324 290 266 250 239 230 218 206 198 194 191 188 185 184 182 179 175 173 172 169 160 154 152 154 160 166 171 178 183 183 183 185 187 187 184 183 185 187 187 189 192 193 193 194 196 197 195 193 194
348 0 359 0 3 3 1 358 355 355 358 2 357 338 308 285 267 251 242 232 217 205 197 192 190 188 187 186 183 180 177 175 172 169 165 162 160 160 159 159 164 170 174 176 177 177 177 174 173 177 181 183 185 187 186 186 187 190 194 196 197 197
358 357 358 6 8 5 1 355 354 355 357 358 356 346 322 299 284 263 250 244 231 215 204 197 194 191 190 189 187 184 181 178 174 172 170 170 170 168 163 161 161 162 164 168 170 169 171 173 174 175 178 181 183 183 180 180 184 187 188 191 194 196